Regional Weather Roundup
Issued by NWS

Home | Current Version | Previous Version | Graphics & Text | Print | Product List | Glossary On
Versions: 1 2 3 4 5 6 7 8 9 10 11 12 13 14 15 16 17 18 19 20 21 22 23 24 25 26 27
000
ASUS45 KCYS 310310
RWRWY

WYOMING REGIONAL WEATHER ROUNDUP
NATIONAL WEATHER SERVICE CHEYENNE WY
900 PM MDT TUE AUG 30 2016

NOTE:  "FAIR" INDICATES FEW OR NO CLOUDS BELOW 12,000 FEET
WITH NO SIGNIFICANT WEATHER AND/OR OBSTRUCTIONS TO VISIBILITY.

WYZ001-310400-
YELLOWSTONE NATIONAL PARK

CITY           SKY/WX    TMP DP  RH WIND       PRES   REMARKS
LK YELLOWSTONE   N/A     58  34  40 CALM      30.36S
W YELLOWSTONE  NOT AVBL

$$
WYZ002>013-054>058-071-098>099-310400-
NORTHERN WYOMING

CITY           SKY/WX    TMP DP  RH WIND       PRES   REMARKS
JACKSON        FAIR      66  30  26 N6        30.22
CODY           FAIR      73  27  17 S3        30.15R
GREYBULL       FAIR      81  36  19 SE5       30.04R
WORLAND        FAIR      78  27  15 SE14      30.08R
SHERIDAN       FAIR      76  33  21 S12       30.08R
BUFFALO        FAIR      75  32  20 S14       30.20R
GILLETTE       FAIR      75  44  33 SE14      30.19R
HULETT         FAIR      68  46  45 SE9       30.21S
NEWCASTLE      FAIR      73  48  40 E9        30.23R

$$
WYZ014>020-022>026-101>103-310400-
CENTRAL WYOMING

CITY           SKY/WX    TMP DP  RH WIND       PRES   REMARKS
BIG PINEY      FAIR      65  28  24 NW5       30.30S
PINEDALE       FAIR      68  27  21 SE5       30.32R
DUBOIS         FAIR      68  27  21 SE10      30.32R
LANDER         FAIR      71  30  21 W10       30.20R
RIVERTON       FAIR      73  26  17 E6        30.19R
CASPER         FAIR      70  44  39 E9        30.23R
DOUGLAS        FAIR      69  39  33 SE13      30.26R

$$
WYZ021-027>030-104>119-310400-
SOUTHERN WYOMING

CITY           SKY/WX    TMP DP  RH WIND       PRES   REMARKS
EVANSTON       FAIR      69  22  16 E7        30.28S
FORT BRIDGER   CLEAR     70  16  12 E7        30.32R
ROCK SPRINGS   FAIR      69  19  15 E12       30.28R
DIXON          FAIR      66  32  28 NE5       30.29R
RAWLINS        FAIR      68  40  35 E13       30.33R
SARATOGA       FAIR      64  39  39 S12       30.34R
LARAMIE        FAIR      57  43  59 SE9       30.40R
CHEYENNE       FAIR      62  52  69 SE9       30.36R
TORRINGTON     FAIR      69  54  58 SE9       30.24R
PINE BLUFFS    FAIR      63  54  72 SE7       30.32R

$$




USA.gov is the U.S. government's official web portal to all federal, state and local government web resources and services.